Regional Weather Roundup
Issued by NWS Kansas City/Pleasant Hill, MO

Home | Current Version | Previous Version | Graphics & Text | Print | Product List | Glossary Off
Versions: 1 2 3 4 5 6 7 8 9 10 11 12 13 14 15 16 17 18 19 20 21 22 23 24 25 26 27 28 29 30 31 32 33 34 35 36 37 38 39 40 41 42 43 44 45 46 47 48 49 50

000
ASUS43 KEAX 251204
RWREAX

WEATHER ROUNDUP FOR EASTERN KANSAS AND NORTHWEST MISSOURI
NATIONAL WEATHER SERVICE KANSAS CITY/PLEASANT HILL MO
600 AM CST THU DEC 25 2014

KSZ040-057-103>105-MOZ028-029-037-043-251300-
...KANSAS CITY METROPOLITAN AREA...

CITY           SKY/WX    TMP DP  RH WIND       PRES   REMARKS
K.C. INTL      PTCLDY    32  27  81 S13       29.76F WCI  22
6HR MIN TEMP:  30; 6HR MAX TEMP:  32;

K.C. DOWNTOWN  PTCLDY    33  28  81 S10       29.79F WCI  25
6HR MIN TEMP:  32; 6HR MAX TEMP:  34;

LEES SUMMIT    CLEAR     31  27  85 S13       29.81S WCI  21
6HR MIN TEMP:  30; 6HR MAX TEMP:  32;

OLATHE - IXD   PTCLDY    30  27  88 S12       29.79S WCI  20
6HR MIN TEMP:  29; 6HR MAX TEMP:  30;

OLATHE - OJC   PTCLDY    30  27  88 S10       29.78F WCI  21
6HR MIN TEMP:  30; 6HR MAX TEMP:  32;

LAWRENCE       CLEAR     31  27  85 S10       29.76F WCI  22

$$

MOZ001>008-011>017-020>025-030>033-038>040-044>046-053-054-251300-
...NORTHERN AND CENTRAL MISSOURI...

CITY           SKY/WX    TMP DP  RH WIND       PRES   REMARKS
ST. JOSEPH     PTCLDY    30  26  85 S9        29.76F WCI  22
6HR MIN TEMP:  29; 6HR MAX TEMP:  31;

MOSBY          SUNNY     32  28  86 SE7       29.81S WCI  26
WARRENSBURG    CLEAR     30  28  93 S8        29.85S WCI  23
WHITEMAN AFB   NOT AVBL
CLINTON        CLEAR     34  32  93 S9        29.88R WCI  26
SEDALIA        CLEAR     32  28  85 S12       29.87S WCI  23
6HR MIN TEMP:  31; 6HR MAX TEMP:  34;

WARSAW         NOT AVBL
MARSHALL       CLEAR     34  32  93 S7        29.86S WCI  28
CHILLICOTHE      N/A     32  28  85 S9        29.83R WCI  24
6HR MIN TEMP:  31; 6HR MAX TEMP:  34;

MOBERLY        CLEAR     32  28  86 S9        29.87R WCI  24
KIRKSVILLE     CLEAR     31  29  92 S12       29.84R WCI  22
6HR MIN TEMP:  30; 6HR MAX TEMP:  33;


$$

MOZ041-047>049-056>058-063>065-088>090-097-251300-
...EASTERN AND SOUTHERN MISSOURI...

CITY           SKY/WX    TMP DP  RH WIND       PRES   REMARKS
ST. LOUIS INTL PTCLDY    36  29  75 S5        29.97R WCI  32
6HR MIN TEMP:  36; 6HR MAX TEMP:  39;

SPIRIT OF STL  CLEAR     32  28  85 S3        29.96R
COLUMBIA       CLEAR     30  28  92 S10       29.90R WCI  21
JEFFERSON CITY CLEAR     32  28  85 SE6       29.93R WCI  26
MEXICO         CLEAR     34  34 100 S12       29.89R WCI  25
HANNIBAL       CLEAR     32  30  93 S9        29.90R WCI  24
ROLLA          CLEAR     30  27  88 S10       29.91R WCI  21
LEBANON        FAIR      30  27  86 S8        29.91S WCI  23
OSAGE BEACH    CLEAR     30  27  86 S7        29.91S WCI  23
SPRINGFIELD    CLEAR     31  27  85 S14       29.90R WCI  21
NEVADA         CLEAR     30  28  93 S10       29.86S WCI  21
JOPLIN         CLEAR     35  28  75 S15       29.88S WCI  25
WEST PLAINS    CLEAR     30  26  85 S6        29.97S WCI  24

$$

IAZ060-094-KSZ022-034>040-054-083-096-NEZ052-066-093-251300-
...KANSAS...SOUTHEAST NEBRASKA AND IOWA...

CITY           SKY/WX    TMP DP  RH WIND       PRES   REMARKS
TOPEKA         CLEAR     36  27  69 S12       29.74F WCI  28
6HR MIN TEMP:  32; 6HR MAX TEMP:  36;

MANHATTAN      MOCLDY    36  24  62 S8        29.67F WCI  30
EMPORIA        MOCLDY    30  26  85 S18G26    29.72S WCI  18
CHANUTE        CLEAR     34  28  79 S14       29.81S WCI  25
WICHITA        PTCLDY    35  24  64 S18       29.68F WCI  24
OMAHA          CLOUDY    32  28  85 S12       29.65S WCI  23
LINCOLN        CLOUDY    33  26  75 S9        29.61F WCI  25
FALLS CITY     PTCLDY    32  26  78 S13       29.70S WCI  22
LAMONI         PTCLDY    28  27  96 S12       29.75R WCI  18
DES MOINES     MOCLDY    32  28  85 S10       29.73S WCI  24

$$



USA.gov is the U.S. government's official web portal to all federal, state and local government web resources and services.